When you browse on this site, cookies collect data to enhance your experience and personalize the content and advertising you see.
Visit our Privacy Policy to learn more. By continuing to use the site, you agree to this use of cookies and data.
EN

Hourly Weather Corabia

Today, 22 September, Tuesday

Time Temperature Precipitation Wind Pressure Humidity
00:00 +18°C° 0 mm 3 mps 762 mmHg 55%
01:00 +17°C° 0 mm 2 mps 763 mmHg 60%
02:00 +17°C° 0 mm 2 mps 763 mmHg 67%
03:00 +16°C° 0 mm 2 mps 763 mmHg 70%
04:00 +16°C° 0 mm 2 mps 762 mmHg 73%
05:00 +16°C° 0 mm 2 mps 762 mmHg 77%
06:00 +17°C° 0 mm 2 mps 762 mmHg 72%
07:00 +18°C° 0 mm 2 mps 762 mmHg 67%
08:00 +19°C° 0 mm 3 mps 763 mmHg 58%
09:00 +22°C° 0 mm 4 mps 762 mmHg 48%
10:00 +25°C° 0 mm 4 mps 762 mmHg 37%
11:00 +28°C° 0 mm 4 mps 762 mmHg 27%
12:00 +28°C° 0 mm 4 mps 761 mmHg 24%
13:00 +29°C° 0 mm 4 mps 761 mmHg 21%
14:00 +30°C° 0 mm 4 mps 760 mmHg 18%
15:00 +30°C° 0 mm 4 mps 760 mmHg 18%
16:00 +30°C° 0 mm 4 mps 759 mmHg 17%
17:00 +30°C° 0 mm 4 mps 759 mmHg 17%
18:00 +27°C° 0 mm 4 mps 759 mmHg 22%
19:00 +25°C° 0 mm 4 mps 760 mmHg 27%
20:00 +21°C° 0 mm 4 mps 760 mmHg 31%
21:00 +20°C° 0 mm 4 mps 760 mmHg 36%
22:00 +19°C° 0 mm 3 mps 760 mmHg 40%
23:00 +18°C° 0 mm 3 mps 760 mmHg 45%

Tomorrow, 23 September, Wednesday

Time Temperature Precipitation Wind Pressure Humidity
00:00 +18°C° 0 mm 3 mps 760 mmHg 49%
01:00 +17°C° 0 mm 2 mps 760 mmHg 53%
02:00 +16°C° 0 mm 2 mps 759 mmHg 57%
03:00 +16°C° 0 mm 2 mps 759 mmHg 60%
04:00 +16°C° 0 mm 2 mps 759 mmHg 62%
05:00 +15°C° 0 mm 2 mps 759 mmHg 64%
06:00 +17°C° 0 mm 2 mps 759 mmHg 61%
07:00 +18°C° 0 mm 2 mps 759 mmHg 58%
08:00 +19°C° 0 mm 2 mps 759 mmHg 54%
09:00 +21°C° 0 mm 2 mps 758 mmHg 47%
10:00 +25°C° 0 mm 1 mps 758 mmHg 39%
11:00 +27°C° 0 mm 1 mps 758 mmHg 32%
12:00 +29°C° 0 mm 1 mps 757 mmHg 30%
13:00 +30°C° 0 mm 1 mps 757 mmHg 27%
14:00 +32°C° 0 mm 1 mps 756 mmHg 24%
15:00 +32°C° 0 mm 1 mps 756 mmHg 25%
16:00 +31°C° 0 mm 1 mps 755 mmHg 26%
17:00 +31°C° 0 mm 1 mps 755 mmHg 26%
18:00 +29°C° 0.1 mm 2 mps 755 mmHg 34%
19:00 +27°C° 0.1 mm 2 mps 756 mmHg 42%
20:00 +24°C° 0.1 mm 3 mps 756 mmHg 49%
21:00 +23°C° 0 mm 2 mps 756 mmHg 55%
22:00 +23°C° 0 mm 2 mps 756 mmHg 61%
23:00 +22°C° 0 mm 1 mps 756 mmHg 67%

Day after tomorrow, 24 September, Thursday

Time Temperature Precipitation Wind Pressure Humidity
00:00 +21°C° 0 mm 1 mps 756 mmHg 69%
01:00 +19°C° 0 mm 0 mps 756 mmHg 71%
02:00 +18°C° 0 mm 0 mps 756 mmHg 73%
03:00 +18°C° 0 mm 0 mps 756 mmHg 74%
04:00 +19°C° 0 mm 1 mps 756 mmHg 76%
05:00 +19°C° 0 mm 1 mps 756 mmHg 77%
06:00 +20°C° 0 mm 1 mps 756 mmHg 73%
07:00 +21°C° 0 mm 1 mps 756 mmHg 69%
08:00 +21°C° 0 mm 2 mps 756 mmHg 65%
09:00 +24°C° 0 mm 2 mps 756 mmHg 56%
10:00 +26°C° 0 mm 2 mps 756 mmHg 48%
11:00 +29°C° 0 mm 3 mps 756 mmHg 39%
12:00 +30°C° 0 mm 3 mps 755 mmHg 36%
13:00 +31°C° 0 mm 3 mps 755 mmHg 33%
14:00 +33°C° 0 mm 3 mps 755 mmHg 29%
15:00 +33°C° 0 mm 3 mps 754 mmHg 28%
16:00 +33°C° 0 mm 3 mps 754 mmHg 28%
17:00 +32°C° 0 mm 2 mps 754 mmHg 27%
18:00 +29°C° 0 mm 2 mps 754 mmHg 31%
19:00 +27°C° 0 mm 1 mps 755 mmHg 36%
20:00 +25°C° 0 mm 1 mps 755 mmHg 40%
21:00 +24°C° 0 mm 1 mps 755 mmHg 41%
22:00 +24°C° 0 mm 1 mps 755 mmHg 43%
23:00 +23°C° 0 mm 1 mps 756 mmHg 44%

25 September, Friday

Time Temperature Precipitation Wind Pressure Humidity
00:00 +23°C° 0 mm 1 mps 755 mmHg 46%
01:00 +22°C° 0 mm 1 mps 755 mmHg 48%
02:00 +22°C° 0 mm 1 mps 755 mmHg 50%
03:00 +21°C° 0 mm 1 mps 755 mmHg 51%
04:00 +21°C° 0 mm 1 mps 755 mmHg 53%
05:00 +21°C° 0 mm 1 mps 755 mmHg 54%
06:00 +22°C° 0 mm 1 mps 754 mmHg 51%
07:00 +23°C° 0 mm 1 mps 754 mmHg 47%
08:00 +24°C° 0 mm 1 mps 754 mmHg 44%
09:00 +27°C° 0 mm 1 mps 754 mmHg 39%
10:00 +29°C° 0 mm 2 mps 753 mmHg 34%
11:00 +31°C° 0 mm 2 mps 753 mmHg 28%
12:00 +32°C° 0 mm 2 mps 752 mmHg 26%
13:00 +34°C° 0 mm 2 mps 752 mmHg 24%
14:00 +35°C° 0 mm 2 mps 751 mmHg 22%
15:00 +35°C° 0 mm 2 mps 750 mmHg 23%
16:00 +34°C° 0 mm 2 mps 750 mmHg 24%
17:00 +32°C° 0 mm 1 mps 749 mmHg 25%
18:00 +31°C° 0 mm 2 mps 749 mmHg 27%
19:00 +29°C° 0 mm 2 mps 749 mmHg 30%
20:00 +28°C° 0 mm 2 mps 749 mmHg 32%
21:00 +27°C° 0 mm 2 mps 749 mmHg 34%
22:00 +27°C° 0 mm 2 mps 749 mmHg 35%
23:00 +26°C° 0 mm 2 mps 748 mmHg 37%

26 September, Saturday

Time Temperature Precipitation Wind Pressure Humidity
00:00 +26°C° 0 mm 2 mps 748 mmHg 38%
01:00 +26°C° 0 mm 2 mps 748 mmHg 38%
02:00 +27°C° 0 mm 2 mps 747 mmHg 39%
03:00 +26°C° 0 mm 3 mps 747 mmHg 41%
04:00 +25°C° 0 mm 3 mps 746 mmHg 43%
05:00 +25°C° 0 mm 3 mps 746 mmHg 46%
06:00 +25°C° 0.1 mm 3 mps 746 mmHg 47%
07:00 +25°C° 0.1 mm 3 mps 745 mmHg 48%
08:00 +25°C° 0.1 mm 3 mps 745 mmHg 49%
09:00 +27°C° 0.5 mm 3 mps 745 mmHg 46%
10:00 +28°C° 0.5 mm 3 mps 744 mmHg 43%
11:00 +29°C° 0.5 mm 3 mps 744 mmHg 40%
12:00 +28°C° 0.5 mm 3 mps 743 mmHg 48%
13:00 +26°C° 0.5 mm 3 mps 742 mmHg 56%
14:00 +23°C° 0.5 mm 4 mps 741 mmHg 64%
15:00 +26°C° 0.6 mm 5 mps 740 mmHg 59%
16:00 +27°C° 0.6 mm 6 mps 739 mmHg 54%
17:00 +28°C° 0.6 mm 7 mps 739 mmHg 50%
18:00 +26°C° 0.5 mm 7 mps 740 mmHg 54%
19:00 +22°C° 0.5 mm 7 mps 741 mmHg 57%
20:00 +18°C° 0.5 mm 7 mps 741 mmHg 61%
21:00 +17°C° 0 mm 6 mps 742 mmHg 63%
22:00 +17°C° 0 mm 5 mps 743 mmHg 65%
23:00 +17°C° 0 mm 4 mps 744 mmHg 66%

27 September, Sunday

Time Temperature Precipitation Wind Pressure Humidity
00:00 +17°C° 0 mm 4 mps 745 mmHg 66%
01:00 +15°C° 0 mm 4 mps 745 mmHg 65%
02:00 +15°C° 0 mm 4 mps 746 mmHg 65%
03:00 +14°C° 0 mm 5 mps 746 mmHg 67%
04:00 +13°C° 0 mm 5 mps 747 mmHg 70%
05:00 +13°C° 0 mm 5 mps 747 mmHg 72%
06:00 +13°C° 0 mm 5 mps 748 mmHg 68%
07:00 +13°C° 0 mm 5 mps 749 mmHg 64%
08:00 +14°C° 0 mm 5 mps 750 mmHg 59%
09:00 +15°C° 0 mm 5 mps 750 mmHg 53%
10:00 +18°C° 0 mm 4 mps 750 mmHg 47%
11:00 +19°C° 0 mm 4 mps 750 mmHg 41%
12:00 +20°C° 0 mm 4 mps 750 mmHg 39%
13:00 +21°C° 0 mm 3 mps 751 mmHg 37%
14:00 +22°C° 0 mm 3 mps 751 mmHg 34%
15:00 +23°C° 0.1 mm 2 mps 751 mmHg 37%
16:00 +21°C° 0.1 mm 2 mps 751 mmHg 39%
17:00 +21°C° 0.1 mm 2 mps 751 mmHg 41%
18:00 +19°C° 0.6 mm 2 mps 751 mmHg 51%
19:00 +18°C° 0.6 mm 2 mps 752 mmHg 60%
20:00 +16°C° 0.6 mm 2 mps 752 mmHg 70%
21:00 +16°C° 0.3 mm 2 mps 753 mmHg 71%
22:00 +15°C° 0.3 mm 2 mps 753 mmHg 73%
23:00 +15°C° 0.3 mm 2 mps 754 mmHg 74%
Show more